Location: Lower Town
(38.3674°N, 119.1199°W)
Time: 00:18:40
(UTC+00:00)

Daily predictions for brighter satellites

Satellite Brightness Start Highest point End
(mag) Time Altitude Azimuth Time Altitude Azimuth Time Altitude Azimuth
Meteor 2-9 Rocket 4.4 02:19:38 10° S 02:25:20 56° E 02:31:01 10° NNE
CZ-2C R/B 3.5 02:22:04 10° SE 02:26:55 44° ENE 02:32:06 10° N
Cosmos 923 Rocket 4.1 02:23:37 10° NNW 02:28:52 87° WSW 02:34:03 10° SSE
Cosmos 1844 Rocket 4.1 02:26:02 10° SE 02:29:02 15° E 02:32:03 10° ENE
USA 116 3.7 02:26:00 10° NNE 02:29:27 53° E 02:33:19 10° S
NOSS 2-2 (D) 3.4 02:27:56 10° S 02:31:17 41° ESE 02:34:42 10° NE
YAOGAN 1 2.6 02:27:32 10° SSE 02:31:48 64° ENE 02:36:05 10° N
Cosmos 2227 4.3 02:26:30 10° SSW 02:32:16 86° WNW 02:38:01 10° NNE
GP-B 3.3 02:29:52 10° N 02:34:19 77° W 02:38:44 10° S
Ariane Rocket 4.5 02:31:29 10° ESE 02:34:47 18° ENE 02:38:05 10° NNE
ATLAS 5 CENTAUR R/B 2.9 02:32:38 10° NNW 02:35:50 48° ENE 02:45:31 10° SE
Okean 2 3.4 02:33:04 10° N 02:37:12 59° E 02:41:17 10° SSE
Cosmos 1943 3.4 02:35:55 10° NNW 02:41:27 52° ENE 02:46:56 10° SE
Cosmos 1975 3.1 02:42:01 10° S 02:46:05 76° W 02:50:11 10° N
Cosmos 1464 Rocket 4.4 02:41:03 10° SSE 02:46:36 38° E 02:52:13 10° NNE
CZ-4 R/B 1.9 02:44:10 10° S 02:48:20 66° WSW 02:52:32 10° NNW
Tsikada Rocket 4.5 02:43:28 10° NNW 02:49:33 65° W 02:55:38 10° S
CSL-04 Debris 4.1 02:44:32 10° SSE 02:49:53 72° ENE 02:55:16 10° N
Cosmos 1898 Rocket 4.2 02:45:17 10° SSW 02:50:22 59° WNW 02:55:30 10° N
Cosmos 1782 Rocket 3.6 02:47:40 10° S 02:52:04 86° W 02:56:31 10° N
CZ-2C R/B 1.4 02:51:01 10° WSW 02:54:27 43° S 02:56:26 20° ESE
Meteor 1-21 4.1 02:49:42 10° N 02:55:18 72° E 03:00:52 10° SSE
Cosmos 1867 4.3 02:53:43 10° NNW 02:58:44 36° NE 03:02:04 19° ESE
Cosmos 1025 Rocket 4.1 02:55:15 10° NNE 02:58:53 25° ENE 03:00:46 19° ESE
CSL-04 Rocket 3.6 02:53:46 10° SSE 02:59:08 82° ENE 03:04:38 10° NNW
Cosmos 1603 3.7 02:55:37 10° NNW 03:01:18 89° ENE 03:06:55 10° SSE
Milstar 3 Cent rocket 3.8 02:58:58 10° SSW 03:03:39 19° S 03:06:06 14° SE
Cosmos 1842 3.7 03:01:52 10° NNW 03:05:42 63° W 03:09:30 10° S
Cosmos 372 Rocket 3.9 03:02:37 10° S 03:07:48 66° ESE 03:13:00 10° NNE
Cosmos 2150 Rocket 4.3 03:07:54 10° S 03:12:57 44° ESE 03:18:04 10° NNE
Cosmos 1891 Rocket 4.4 03:08:03 10° S 03:14:10 71° E 03:20:13 10° NNE
NOSS 2-2 (C) 3.8 03:12:23 10° SW 03:15:49 53° NW 03:19:26 10° NNE
Cosmos 1707 2.6 03:15:48 10° N 03:19:36 61° E 03:21:45 24° SSE
SJ-6B 3.4 03:19:57 32° ENE 03:20:05 32° ENE 03:23:26 10° N
Cosmos 1975 Rocket 3.4 03:15:48 10° NNW 03:20:06 66° W 03:24:21 10° S
Cosmos 2084 Rocket 3.6 03:15:50 10° NW 03:20:19 77° WSW 03:23:22 20° SSE
MOS 1 Rocket 3.5 03:18:26 10° N 03:22:50 67° WNW 03:27:05 10° SSW
Cosmos 1125 Rocket 4.0 03:18:10 10° SSE 03:22:55 35° E 03:27:43 10° NE
ISS -2.6 03:20:43 10° WSW 03:23:57 43° NW 03:26:13 17° NNE
Resurs 01 Rocket 3.6 03:27:09 14° NE 03:27:09 14° NE 03:28:30 10° NNE
Sich 1 Rocket 4.5 03:27:31 10° SSW 03:31:52 52° W 03:36:18 10° N
USA 234 3.1 03:33:29 10° NE 03:40:02 73° SE 03:46:34 10° SW
H-2A R/B 2.9 03:36:25 10° S 03:41:07 46° W 03:45:57 10° NNW
Cosmos 2034 Rocket 3.9 03:37:16 10° S 03:43:38 81° E 03:50:00 10° N
Nadezhda 4 Rocket 3.9 03:38:36 10° N 03:44:41 65° E 03:47:45 30° SSE
SL-08 RB Rocket 3.8 03:43:24 22° S 03:46:20 76° WSW 03:50:56 10° NNW
ARGOS 3.7 03:41:23 10° S 03:46:38 59° W 03:51:57 10° NNW
In-Cosmos 22 3.9 03:41:19 10° N 03:46:39 86° E 03:49:36 27° S
Okean 2 Rocket 4.0 03:47:03 10° SSW 03:51:26 50° W 03:55:49 10° N
BREEZE-M DEB (TANK) 4.1 03:49:44 10° WSW 03:52:56 57° NNW 04:03:06 10° NE
CZ-2C R/B 2.8 03:48:52 10° N 03:54:26 79° WNW 04:00:01 10° SSW
Okean 1 Rocket 4.4 03:57:02 27° NNE 03:57:02 27° NNE 03:59:14 10° NNE
Cosmos 1048 Rocket 4.1 03:49:57 10° N 03:55:11 57° ENE 03:55:33 56° E
USA 186 3.0 03:57:54 39° WNW 03:57:54 39° WNW 04:00:32 10° NNW
MOS 1 4.2 03:56:46 34° SSE 03:59:24 88° WSW 04:05:09 10° NNW
Cosmos 1844 3.5 03:55:42 10° SSW 04:01:25 80° ESE 04:07:05 10° NNE
Resurs 1-3 4.3 04:04:57 42° NNE 04:04:57 42° NNE 04:08:04 10° N
DELTA 2 R/B (1) 4.0 04:02:32 10° W 04:07:50 47° SSW 04:08:23 46° S
BREEZE-M DEB (TANK) 4.5 03:49:27 10° WNW 04:10:12 89° SSW 04:12:07 53° ESE
Cosmos 1844 Rocket 3.0 04:06:45 10° SSW 04:12:15 66° WNW 04:17:50 10° NNE
Ariane Rocket 3.6 04:11:02 30° SSW 04:13:17 53° W 04:18:15 10° NNW
Cosmos 1634 Rocket 4.0 04:17:31 61° ENE 04:17:31 61° ENE 04:23:02 10° NNE
ATLAS 2AS CENTAUR R/B 3.0 04:09:34 10° S 04:20:13 36° ENE 04:24:51 10° NE
OBJECT-B 3.7 04:20:34 14° NNW 04:20:34 14° NNW 04:21:07 10° NNW
Cosmos 2285 Rocket 4.0 04:16:24 10° SSW 04:22:40 82° WNW 04:29:02 10° NNE
Cosmos 1536 Rocket 4.5 04:19:54 10° NNW 04:24:09 45° W 04:24:21 45° W
SPOT 3 Rocket 3.8 04:26:58 64° N 04:26:58 64° N 04:31:18 10° NNW
CENTAUR R/B 3.2 04:25:21 10° NNW 04:33:31 61° NE 04:34:28 58° E
CZ-2C R/B 4.0 04:30:34 10° W 04:30:47 11° WSW 04:30:47 11° WSW
Cosmos 1627 Rocket 4.5 04:31:15 10° N 04:37:09 76° NNE 04:37:09 76° NNE
ATLAS 3B R/B 4.1 04:33:54 10° NNW 04:39:00 25° NE 04:39:00 25° NE
USA 238 DEB 3.7 04:35:11 10° NNW 04:42:31 87° WSW 04:42:53 82° S
USA 238 3.7 04:35:17 10° NNW 04:42:37 88° WSW 04:42:58 83° SSE
Cosmos 1092 Rocket 4.1 04:37:20 10° NNW 04:43:27 70° W 04:43:35 69° WSW
Cosmos 2026 Rocket 4.2 04:44:12 10° N 04:49:46 69° NNW 04:49:46 69° NNW
Resurs 01 Rocket 4.0 05:04:44 21° NNW 05:04:44 21° NNW 05:06:19 10° NNW
NOSS 3-2 (A) 4.4 05:02:58 10° NW 05:10:38 58° WSW 05:11:00 57° SW
Cosmos 2082 Rocket 4.5 05:14:29 10° N 05:15:44 15° N 05:15:44 15° N
ATLAS 2AS CENTAUR R/B 4.1 06:01:12 10° WSW 06:08:28 38° NW 06:15:43 10° NNE
USA 267 4.5 09:48:00 10° NE 09:51:38 36° NE 09:51:38 36° NE
ADEOS II 4.4 10:01:34 10° NNE 10:03:06 20° NNE 10:03:06 20° NNE
IDEFIX/ARIANE 42P 4.5 10:14:30 10° NE 10:17:40 26° ENE 10:17:40 26° ENE
ARIANE 5 R/B 4.4 10:21:00 10° NNE 10:23:29 26° NE 10:23:29 26° NE
ASTEX 1 4.4 10:49:56 10° NNE 10:53:47 44° NE 10:53:47 44° NE
Cosmos 1697 Rocket 3.5 11:01:19 41° N 11:01:19 41° N 11:05:07 10° NNE
Cosmos 1980 Rocket 2.4 11:04:20 69° ENE 11:04:20 69° ENE 11:09:27 10° NNE
Cosmos 2263 Rocket 4.2 11:11:15 10° N 11:15:58 26° ENE 11:20:41 10° ESE
SL-16 R/B 4.1 11:13:22 12° SSE 11:17:36 26° ESE 11:22:13 10° NE
Spot 4 Rocket 4.1 11:17:40 10° N 11:22:08 65° NNW 11:22:08 65° NNW
Meteor 1-14 Rocket 4.4 11:17:41 10° N 11:23:17 68° E 11:28:46 10° SSE
Lacrosse 5 3.0 11:27:59 32° NNW 11:27:59 32° NNW 11:32:00 10° NNE
Cosmos 1238 Rocket 4.0 11:22:13 10° N 11:28:51 78° E 11:34:49 10° S
CZ-4C R/B 4.3 11:30:59 38° NNE 11:30:59 38° NNE 11:33:35 10° N
Celestis-02/Orion 38 4.5 11:25:31 10° SSE 11:30:49 87° WSW 11:36:03 10° NNW
Cosmos 921 Rocket 3.3 11:32:00 58° ESE 11:32:03 58° ESE 11:36:10 10° NNE
NOSS 3-3 (A) 3.8 11:32:28 55° SSW 11:33:47 80° ESE 11:40:04 10° NE
NOSS 3-3 (C) 3.8 11:32:38 56° SSW 11:33:54 79° ESE 11:40:08 10° NE
Cosmos 44 3.3 11:37:03 58° NNW 11:37:03 58° NNW 11:40:59 10° NNE
USA 267 4.2 11:31:27 10° NNE 11:37:07 33° NNW 11:38:59 28° WNW
Cosmos 972 4.3 11:38:26 70° W 11:38:30 70° WNW 11:43:25 10° N
Cosmos 2228 Rocket 2.9 11:38:52 82° SE 11:39:00 85° E 11:43:25 10° N
Cosmos 1821 Rocket 4.5 11:34:30 10° NNW 11:39:20 40° WNW 11:39:20 40° WNW
X-37B 2.8 11:42:47 22° NNE 11:42:47 22° NNE 11:44:55 10° NE
Meteor 1-4 Rocket 3.8 11:43:45 31° SE 11:44:43 38° E 11:47:59 10° NNE
ADEOS II 4.1 11:42:51 10° NNW 11:44:02 13° NW 11:44:02 13° NW
GENESIS II 4.2 11:46:42 77° SE 11:46:47 78° ESE 11:50:50 10° NE
